Location: Boussey
(47.3724°N, 4.5536°E)
Time: 10:13:41
(UTC+00:00)

Daily predictions for brighter satellites

Satellite Brightness Start Highest point End
(mag) Time Altitude Azimuth Time Altitude Azimuth Time Altitude Azimuth
Cosmos 1943 Rocket 3.5 18:32:03 10° N 18:36:21 22° NE 18:40:38 10° E
STARLINK-1091 3.7 18:33:12 10° WNW 18:37:15 67° NNE 18:41:17 10° ESE
Cosmos 1980 3.7 18:31:58 10° SSW 18:37:39 78° ESE 18:43:21 10° NNE
CZ-2D R/B 4.2 18:34:22 10° S 18:38:06 53° W 18:41:52 10° NNW
Cosmos 1766 3.4 18:34:17 10° S 18:38:10 53° E 18:42:05 10° NNE
S3M 4.1 18:33:48 10° S 18:40:04 64° E 18:46:24 10° NNE
Cosmos 2084 4.0 18:37:25 10° SW 18:41:53 66° NW 18:46:21 10° NE
Ariane Rocket 3.1 18:37:06 10° SSE 18:42:05 60° ENE 18:47:05 10° N
YAOGAN 1 3.8 18:38:07 10° S 18:42:17 47° W 18:46:29 10° NNW
STARLINK-1224 4.1 18:38:35 10° SSW 18:42:21 39° SE 18:46:08 10° ENE
BREEZE-M DEB (TANK) 4.2 18:27:43 10° WNW 18:43:04 60° SW 18:46:46 10° SE
Cosmos 1386 Rocket 4.4 18:37:21 10° N 18:43:25 69° E 18:49:23 10° SSE
SL-08 ROCKET BODY 4.4 18:37:28 10° N 18:43:37 68° E 18:49:37 10° SSE
Cosmos 1455 Rocket 3.3 18:41:02 10° SSE 18:45:09 45° E 18:49:19 10° NNE
STARLINK-1225 4.0 18:43:13 10° SSW 18:47:02 43° SE 18:50:52 10° ENE
Cosmos 1110 Rocket 4.0 18:42:00 10° NNW 18:47:18 76° ENE 18:52:30 10° SSE
Cosmos 332 Rocket 4.1 18:43:36 10° NNW 18:48:32 76° WSW 18:53:26 10° SSE
STARLINK-1203 3.8 18:45:10 10° SW 18:48:57 47° SE 18:52:45 10° ENE
STARLINK-1072 3.5 18:46:24 10° WNW 18:50:25 78° NNE 18:54:14 11° ESE
Cosmos 1892 Rocket 3.6 18:46:36 10° N 18:51:06 82° E 18:55:35 10° S
SL-16 R/B 2.7 18:46:06 10° S 18:51:14 37° ESE 18:56:24 10° NE
STARLINK-1230 3.9 18:47:47 10° SW 18:51:39 46° SE 18:55:31 10° ENE
Cosmos 2333 Rocket 3.9 18:46:25 10° WSW 18:51:40 37° NW 18:56:56 10° NNE
Cosmos 1626 Rocket 4.4 18:48:39 10° N 18:52:36 31° ENE 18:56:30 10° SE
STARLINK-1103 4.5 18:50:07 10° WNW 18:54:04 42° NNE 18:57:58 10° E
USA 186 2.2 18:51:09 10° SSE 18:54:28 48° ENE 18:57:46 10° N
STARLINK-1096 3.5 18:50:52 10° WNW 18:54:53 83° NNE 18:58:31 12° ESE
STARLINK-1234 2.7 18:51:55 10° WSW 18:54:55 89° N 18:57:55 10° ENE
Cosmos 1953 4.1 18:53:53 11° ESE 18:55:22 13° E 18:57:17 10° NE
ARGOS Delta rocket 4.0 18:50:27 10° SSE 18:55:31 74° ENE 19:00:53 10° N
Cosmos 1626 2.5 18:52:04 10° N 18:55:37 41° ENE 18:59:08 10° SSE
STARLINK-1243 3.8 18:52:25 10° SW 18:56:19 49° SE 19:00:14 10° ENE
NOSS 2-1 (E) 4.0 18:54:22 10° WSW 18:57:41 50° NW 19:01:25 10° NNE
Okean 1-7 Rocket 3.5 18:54:35 10° N 18:59:02 85° E 19:03:24 10° S
STARLINK-1101 4.4 18:55:07 10° WNW 18:59:05 43° NNE 19:02:46 12° E
STARLINK-1079 3.5 18:55:20 10° WNW 18:59:21 87° NNE 19:02:49 13° ESE
Cosmos 1602 Rocket 4.5 18:56:12 10° N 19:00:09 30° ENE 19:03:55 11° SE
STARLINK-1236 3.7 18:57:03 10° SW 19:00:58 53° SE 19:04:55 10° ENE
ATLAS 2AS CENTAUR R/B 4.3 18:57:00 10° NW 19:03:33 28° NNE 19:09:45 10° ENE
STARLINK-1116 3.5 18:59:48 10° WNW 19:03:50 88° SSW 19:07:08 15° ESE
STARLINK-1102 4.4 19:00:06 10° WNW 19:04:05 44° NNE 19:07:32 13° E
SJ-11-01 4.5 19:00:41 10° S 19:05:21 78° WSW 19:10:07 10° NNW
H-2A R/B 2.1 19:01:04 10° SSE 19:06:22 79° ENE 19:11:35 10° NNW
STARLINK-1111 4.3 19:05:05 10° WNW 19:09:05 45° NNE 19:12:19 15° E
Aureole 2 Rocket 4.3 19:07:09 10° NNE 19:09:22 16° NE 19:10:31 14° ENE
Cosmos 883 Rocket 4.5 19:04:10 10° S 19:10:16 66° E 19:16:29 10° NNE
STARLINK-1269 3.6 19:06:22 10° SW 19:10:21 62° SE 19:14:22 10° ENE
ERBS 3.9 19:09:15 10° W 19:12:24 35° NNW 19:15:32 10° NE
Cosmos 1544 Rocket 3.5 19:08:13 10° S 19:12:33 66° E 19:16:58 10° NNE
STARLINK-1094 3.6 19:08:47 10° WNW 19:12:48 79° SSW 19:15:46 17° SE
Cosmos 1745 Rocket 4.4 19:06:49 10° NNW 19:13:06 69° W 19:19:17 10° S
STARLINK-1073 4.3 19:10:04 10° WNW 19:14:06 47° NNE 19:17:06 17° E
STARLINK-1200 3.5 19:11:03 10° SW 19:15:03 67° SSE 19:18:56 11° ENE
Cosmos 2297 3.7 19:09:20 10° NNW 19:15:03 80° ENE 19:20:45 10° SSE
USA 234 3.4 19:09:08 10° ENE 19:15:32 53° SE 19:21:53 10° SSW
CZ-2C R/B 4.2 19:11:18 10° NNE 19:15:49 41° E 19:20:14 10° SSE
STARLINK-1117 3.6 19:13:18 10° WNW 19:17:19 74° SSW 19:20:06 19° SE
STARLINK-1121 4.2 19:15:04 10° WNW 19:19:06 49° NNE 19:21:53 18° E
STARLINK-1192 3.5 19:15:40 10° SW 19:19:41 71° SSE 19:23:25 12° ENE
ADEOS Rocket 4.3 19:13:59 10° N 19:20:32 47° WNW 19:26:27 10° SW
Cosmos 2237 Rocket 3.0 19:15:54 10° SW 19:21:25 55° WNW 19:26:59 10° NNE
STARLINK-1078 3.7 19:17:48 10° WNW 19:21:49 69° SSW 19:24:26 20° SE
STARLINK-1106 4.1 19:20:02 10° WNW 19:24:05 51° NNE 19:26:39 21° E
STARLINK-1244 3.5 19:20:26 10° SW 19:24:28 76° SSE 19:28:01 13° ENE
Cosmos 1302 Rocket 4.0 19:19:33 10° NNW 19:24:51 77° ENE 19:29:43 12° SSE
STARLINK-1201 3.2 19:21:37 10° WSW 19:24:52 72° NNW 19:27:31 15° ENE
STARLINK-1108 3.7 19:22:20 10° WNW 19:26:20 65° SSW 19:28:47 22° SE
Cosmos 2278 Rocket 4.2 19:22:12 10° NW 19:26:56 28° WSW 19:31:38 10° SSW
CZ-2C R/B 3.2 19:23:07 10° NNE 19:27:48 33° E 19:32:27 10° SSE
Cosmos 1269 Rocket 4.0 19:23:21 10° SSW 19:28:39 88° ESE 19:34:00 10° NNE
STARLINK-1112 4.1 19:25:02 10° WNW 19:29:05 53° NNE 19:31:27 23° E
STARLINK-1138 3.5 19:25:07 10° SW 19:29:10 81° SSE 19:32:32 15° ENE
STARLINK-1209 3.5 19:27:25 10° W 19:30:15 48° NNW 19:32:14 17° NE
STARLINK-1066 4.2 19:27:44 10° WNW 19:30:39 34° SW 19:32:18 20° SSE
STARLINK-1071 3.8 19:26:52 10° WNW 19:30:50 60° SW 19:33:08 23° SE
STARLINK-1081 4.2 19:28:13 10° WNW 19:31:05 33° SW 19:32:41 20° SSE
STARLINK-1228 3.5 19:28:24 10° W 19:31:12 47° NNW 19:33:09 17° NE
STARLINK-1070 4.2 19:28:40 10° WNW 19:31:31 33° SW 19:33:06 20° SSE
STARLINK-1124 3.9 19:27:45 10° WNW 19:31:51 60° SW 19:34:14 23° SE
STARLINK-1069 4.2 19:29:05 10° WNW 19:31:58 33° SW 19:33:34 20° SSE
STARLINK-1085 4.2 19:29:32 10° WNW 19:32:25 33° SW 19:34:00 20° SSE
STARLINK-1086 4.2 19:30:03 10° WNW 19:32:53 32° SW 19:34:25 20° S
STARLINK-1095 4.2 19:30:29 10° WNW 19:33:19 32° SW 19:34:50 20° S
STARLINK-1077 4.3 19:30:56 10° WNW 19:33:45 31° SW 19:35:16 20° S
Meteor 1-24 Rocket 4.4 19:28:26 10° NNW 19:33:50 54° W 19:39:02 10° S
STARLINK-1143 3.5 19:29:53 10° WSW 19:33:57 86° SE 19:37:08 16° ENE
STARLINK-1128 4.0 19:30:02 10° WNW 19:34:06 55° NNE 19:36:15 26° E
STARLINK-1075 4.3 19:31:24 10° WNW 19:34:13 31° SW 19:35:42 20° S
ARGOS 3.4 19:29:07 10° S 19:34:30 73° WSW 19:39:55 10° NNW
STARLINK-1093 4.3 19:31:48 10° WNW 19:34:40 31° SW 19:36:10 20° S
SL-8 R/B 3.7 19:30:15 10° W 19:35:02 77° N 19:38:02 23° E
STARLINK-1074 4.3 19:32:15 10° WNW 19:35:06 31° SW 19:36:36 20° S
STARLINK-1110 3.9 19:31:23 10° WNW 19:35:21 56° SW 19:37:29 25° SE
STARLINK-1087 4.3 19:32:45 10° WNW 19:35:34 30° SW 19:37:00 20° S
Cosmos 2251 Rocket 4.2 19:30:58 10° SSE 19:35:38 32° E 19:40:20 10° NE
STARLINK-1088 4.3 19:33:13 10° WNW 19:36:00 30° SW 19:37:26 20° S
STARLINK-1115 4.3 19:33:38 10° WNW 19:36:28 30° SW 19:37:55 20° S
STARLINK-1076 4.4 19:34:04 10° WNW 19:36:53 30° SW 19:38:20 20° S
STARLINK-1092 4.4 19:34:32 10° WNW 19:37:22 30° SW 19:38:47 20° S
SL-24 R/B 4.1 19:33:06 10° NNE 19:37:45 58° E 19:41:47 10° S
STARLINK-1080 4.4 19:35:03 10° WNW 19:37:48 29° SW 19:39:10 20° S
STARLINK-1090 4.4 19:35:29 10° WNW 19:38:14 29° SW 19:39:36 20° S
STARLINK-1089 4.4 19:35:56 10° WNW 19:38:42 29° SW 19:40:02 20° S
STARLINK-1113 3.9 19:35:00 10° WNW 19:39:06 58° NNE 19:41:02 29° E
STARLINK-1107 4.4 19:36:23 10° WNW 19:39:09 28° SW 19:40:28 20° S
Cosmos 1470 2.6 19:37:33 10° S 19:41:25 84° E 19:45:20 10° N
STARLINK-1119 3.9 19:39:58 10° WNW 19:44:05 60° NNE 19:45:48 32° E
STARLINK-1241 3.5 19:40:21 10° WSW 19:44:22 83° NNW 19:47:06 20° ENE
STARLINK-1122 4.2 19:40:35 10° WNW 19:44:28 49° SW 19:46:17 27° SSE
STARLINK-1233 3.6 19:41:36 10° W 19:44:40 51° NNW 19:46:21 23° NE
STARLINK-1212 3.6 19:42:03 10° W 19:45:07 51° NNW 19:46:46 23° NE
STARLINK-1105 3.6 19:42:30 10° W 19:45:35 51° NNW 19:47:13 23° NE
Cosmos 2315 Rocket 4.0 19:39:20 10° S 19:45:39 87° W 19:52:04 10° N
SL-08 RB Rocket 3.9 19:41:10 10° S 19:45:40 73° WSW 19:50:14 10° NNW
STARLINK-1206 3.6 19:43:00 10° W 19:46:03 50° NNW 19:47:38 24° NE
STARLINK-1247 3.6 19:43:26 10° W 19:46:29 50° NNW 19:48:03 24° NE
SJ-6B 3.6 19:42:50 10° S 19:46:49 54° W 19:50:53 10° NNW
STARLINK-1227 3.7 19:43:51 10° W 19:46:55 50° NNW 19:48:30 24° NE
ISS -3.2 19:43:57 10° WNW 19:47:14 50° NNE 19:48:11 36° ENE
MetOp-A 4.1 19:42:29 13° SSE 19:47:16 85° ENE 19:52:40 10° NNW
STARLINK-1218 3.7 19:44:21 10° W 19:47:23 49° NNW 19:48:55 25° NE
Resurs 1-3 3.5 19:44:43 21° SSE 19:47:33 76° ENE 19:51:58 10° N
STARLINK-1226 3.7 19:44:49 10° W 19:47:52 49° NNW 19:49:23 25° NE
STARLINK-1254 3.7 19:45:13 10° W 19:48:16 49° NNW 19:49:48 25° NE
STARLINK-1215 3.7 19:45:43 10° W 19:48:45 48° NNW 19:50:14 25° NE
STARLINK-1239 3.6 19:44:57 10° WSW 19:48:58 79° NNW 19:51:30 22° ENE
STARLINK-1114 3.8 19:44:57 10° WNW 19:49:06 64° NNE 19:50:36 36° E
STARLINK-1126 4.3 19:45:14 10° WNW 19:49:06 45° SW 19:50:44 28° SSE
STARLINK-1231 3.7 19:46:09 10° W 19:49:11 48° NNW 19:50:39 26° NE
Cosmos 1758 3.3 19:45:14 10° S 19:49:19 88° W 19:53:27 10° N
ERS-1 Rocket 4.5 19:48:48 19° ENE 19:49:34 19° ENE 19:53:03 10° NNE
STARLINK-1232 3.7 19:47:04 10° W 19:50:06 48° NNW 19:51:31 26° NE
STARLINK-1217 3.7 19:47:32 10° W 19:50:34 47° NNW 19:51:58 26° NE
STARLINK-1208 3.8 19:47:57 10° W 19:51:00 47° NNW 19:52:25 26° NE
STARLINK-1229 3.8 19:48:25 10° W 19:51:27 47° NNW 19:52:48 27° NE
STARLINK-1271 3.8 19:48:54 10° W 19:51:55 47° NNW 19:53:16 27° NE
BREEZE-M DEB (TANK) 3.7 19:45:12 10° WNW 19:52:03 71° N 19:53:09 39° E
STARLINK-1270 3.8 19:49:21 10° W 19:52:22 46° NNW 19:53:42 27° NE
IRIDIUM 104 4.2 19:47:18 10° N 19:52:33 73° E 19:56:26 18° SSE
BREEZE M DEB (TANK) 4.3 19:43:06 10° SW 19:52:42 34° SSE 19:53:50 30° SE
STARLINK-1154 3.8 19:49:47 10° W 19:52:49 46° NNW 19:54:07 27° NE
CZ-2C R/B 4.0 19:48:25 10° S 19:53:17 45° W 19:57:58 10° NNW
STARLINK-1240 3.6 19:49:33 10° WSW 19:53:35 75° NNW 19:55:56 24° ENE
STARLINK-1082 4.4 19:49:49 10° WNW 19:53:38 42° SW 19:55:08 29° S
STARLINK-1197 3.8 19:50:42 10° W 19:53:44 46° NNW 19:54:59 28° NE
STARLINK-1130 (DARKSAT) 3.7 19:49:56 10° WNW 19:54:04 67° NNE 19:55:22 41° E
STARLINK-1189 3.8 19:51:09 10° W 19:54:11 45° NNW 19:55:26 28° NE
Resurs 01 Rocket 1.6 19:53:05 33° SE 19:54:55 64° ENE 19:59:18 10° N
STARLINK-1187 4.0 19:52:03 10° W 19:55:03 42° NNW 19:56:20 27° NE
STARLINK-1188 3.8 19:52:04 10° W 19:55:05 45° NNW 19:56:17 28° NE
STARLINK-1198 3.8 19:52:18 10° W 19:55:18 45° NNW 19:56:31 28° NE
Cosmos 2369 Rocket 2.4 19:49:48 10° NNW 19:55:27 56° ENE 19:57:50 33° ESE
STARLINK-1235 4.1 19:52:46 10° W 19:55:47 40° NNW 19:57:05 26° NE
Abrixas rocket 4.3 19:53:37 10° SSW 19:54:14 14° SSW 19:54:14 14° SSW
STARLINK-1199 3.9 19:54:00 10° W 19:57:02 44° NNW 19:58:12 29° NE
STARLINK-1191 3.9 19:54:28 10° W 19:57:30 44° NNW 19:58:39 29° NE
STARLINK-67 4.2 19:55:17 10° WNW 19:57:34 27° NNW 19:58:04 25° N
STARLINK-1210 3.9 19:54:55 10° W 19:57:56 44° NNW 19:59:05 29° NNE
STARLINK-1100 4.5 19:54:24 10° WNW 19:58:11 39° SW 19:59:31 29° S
STARLINK-1216 3.7 19:54:12 10° WSW 19:58:12 71° NNW 20:00:23 26° NE
STARLINK-1221 3.9 19:55:23 10° W 19:58:25 44° NNW 19:59:32 30° NNE
STARLINK-1219 3.9 19:55:50 10° W 19:58:52 43° NNW 19:59:58 30° NNE
STARLINK-1084 3.7 19:54:54 10° WNW 19:59:03 71° NNE 20:00:09 46° E
STARLINK-1222 3.9 19:56:16 10° W 19:59:18 43° NNW 20:00:23 30° NNE
STARLINK-1211 3.9 19:56:44 10° W 19:59:46 43° NNW 20:00:48 30° NNE
STARLINK-1214 3.9 19:57:12 10° W 20:00:13 43° NNW 20:01:15 30° NNE
STARLINK-1245 3.9 19:57:42 10° W 20:00:41 42° NNW 20:01:40 31° NNE
STARLINK-1238 4.0 19:58:06 10° W 20:01:07 42° NNW 20:02:07 31° NNE
Meteor 2-15 Rocket 4.4 19:55:36 10° S 20:01:40 90° ESE 20:07:47 10° N
IRIDIUM 114 4.2 19:56:27 10° N 20:01:43 86° E 20:05:34 19° S
STARLINK-1205 4.0 19:59:04 10° W 20:02:03 42° NNW 20:02:58 32° NNE
STARLINK-1204 4.0 19:59:30 10° W 20:02:29 41° NNW 20:03:23 32° NNE
STARLINK-1237 3.8 19:58:52 10° WSW 20:02:53 67° NNW 20:04:52 28° NE
STARLINK-1098 3.6 19:59:52 10° WNW 20:04:01 75° NNE 20:04:55 52° E
SPOT 3 Rocket 4.0 20:00:43 12° S 20:05:30 62° WSW 20:10:42 10° NNW
Cosmos 1726 2.5 20:06:29 45° ENE 20:06:29 45° ENE 20:09:32 10° NNE
STARLINK-1202 3.9 20:03:30 10° WSW 20:07:30 64° NNW 20:09:19 30° NE
Meteor 1-21 Rocket 4.1 20:02:32 10° NNW 20:08:08 88° W 20:11:31 25° S
Nadezhda 1 Rocket 4.3 20:06:17 32° SE 20:08:46 46° E 20:14:50 10° NNE
STARLINK-1123 3.5 20:04:52 10° WNW 20:09:02 79° NNE 20:09:44 60° E
Cosmos 2228 3.8 20:11:02 35° ENE 20:11:02 35° ENE 20:14:08 10° NNE
IRIDIUM 103 4.4 20:05:39 10° N 20:10:53 80° W 20:14:45 19° S
STARLINK-1246 4.0 20:08:38 10° WSW 20:12:39 61° NNW 20:14:18 32° NE
MOS 1 Rocket 3.5 20:07:40 10° NNE 20:12:54 84° ESE 20:18:19 10° SSW
STARLINK-1097 3.5 20:09:50 10° WNW 20:14:00 84° NNE 20:14:29 68° ESE
Cosmos 292 Rocket 3.7 20:12:59 10° NNW 20:17:48 87° WSW 20:19:07 49° SSE
Cosmos 1943 3.7 20:19:28 39° E 20:19:28 39° E 20:23:57 10° NE
STARLINK-1099 3.4 20:14:49 10° WNW 20:18:59 88° NNE 20:19:17 77° ESE
Cosmos 1943 Rocket 2.2 20:15:10 10° NNW 20:20:43 77° WSW 20:22:51 39° SSE
STARLINK-1224 4.1 20:17:32 10° W 20:21:31 55° NNW 20:22:45 38° NE
NOSS 3-4 (A) 4.4 20:16:38 10° NW 20:23:05 43° NE 20:25:57 30° E
NOSS 3-4 (C) 4.5 20:16:44 10° NW 20:23:11 42° NE 20:26:03 30° E
Cosmos 2074 Rocket 4.0 20:16:58 10° N 20:23:16 87° W 20:26:45 29° S
STARLINK-1104 3.4 20:19:49 10° WNW 20:23:59 87° SSW 20:24:04 84° SSE
STARLINK-1225 4.2 20:22:17 10° W 20:26:14 53° NNW 20:27:17 40° NNE
Cosmos 1328 4.2 20:23:24 10° N 20:26:45 52° NE 20:26:45 52° NE
STARLINK-1203 4.3 20:24:01 10° W 20:27:51 49° NNW 20:28:44 40° NNE
STARLINK-1144 3.5 20:24:46 10° WNW 20:28:50 81° WSW 20:28:50 81° WSW
Cosmos 1437 4.3 20:26:48 10° NNW 20:28:32 31° NNW 20:28:32 31° NNW
STARLINK-1230 4.3 20:26:57 10° W 20:30:54 51° NNW 20:31:44 42° NNE
Cosmos 1953 2.9 20:29:29 29° SW 20:31:16 54° WNW 20:35:12 10° N
Meteor 2-10 4.0 20:28:33 24° SSW 20:31:55 87° W 20:37:30 10° N
SPOT 1/Viking Rocket 3.7 20:32:06 51° E 20:32:23 52° ENE 20:37:27 10° N
NOSS 3-3 (A) 3.8 20:27:05 10° SSW 20:32:49 61° ESE 20:39:17 10° NE
NOSS 3-3 (C) 3.8 20:27:12 10° SSW 20:32:56 60° ESE 20:39:23 10° NE
STARLINK-1103 3.7 20:29:45 10° WNW 20:33:37 72° WSW 20:33:37 72° WSW
Spot 2 Rocket 3.4 20:33:06 62° SE 20:33:57 80° ENE 20:39:06 10° NNW
Cosmos 2084 Rocket 3.6 20:30:40 10° NW 20:35:07 67° SW 20:35:19 65° SW
SL-16 R/B 3.5 20:29:59 10° WSW 20:35:18 41° NW 20:40:39 10° NNE
STARLINK-1243 4.3 20:31:42 10° W 20:35:37 49° NNW 20:36:16 44° NNE
Cosmos 1610 Rocket 4.3 20:31:03 10° N 20:37:19 80° E 20:39:04 50° SSE
STARLINK-1101 3.9 20:34:45 10° WNW 20:38:25 63° W 20:38:25 63° W
STARLINK-1236 4.4 20:36:23 10° W 20:40:19 47° NNW 20:40:46 45° N
IGS 5A 4.0 20:42:14 49° NNE 20:42:14 49° NNE 20:45:29 10° N
Aureole 2 Rocket 3.7 20:40:02 10° NNW 20:42:44 39° WNW 20:42:44 39° WNW
STARLINK-1102 4.1 20:39:44 10° WNW 20:43:11 55° W 20:43:11 55° W
Terra 3.0 20:49:36 31° NE 20:49:36 31° NE 20:52:51 10° N
STARLINK-1111 4.4 20:44:43 10° WNW 20:47:58 49° W 20:47:58 49° W
STARLINK-1269 4.5 20:45:54 10° W 20:49:47 44° NNW 20:49:49 44° NNW
Cosmos 2341 Rocket 4.0 20:47:11 10° N 20:53:29 60° ENE 20:53:51 59° E
Cosmos 1703 4.1 20:50:05 10° NNW 20:53:09 49° NW 20:53:09 49° NW
Cosmos 1726 Rocket 4.1 20:55:09 53° N 20:55:09 53° N 20:58:35 10° N
ATLAS 2AS CENTAUR R/B 3.0 20:48:29 10° NW 20:56:08 62° NE 20:57:42 51° E
Meteor 1-16 Rocket 4.4 20:54:16 33° SSW 20:56:38 64° WNW 21:02:05 10° N
Cosmos 1603 3.6 20:53:25 26° SSW 20:56:43 84° WNW 21:02:23 10° NNE
Cosmos 1825 Rocket 4.4 20:53:15 10° NNW 20:57:30 45° W 20:57:49 44° WSW
USA 234 3.6 20:52:12 10° NE 20:58:39 62° NNW 21:05:04 10° WSW
Aureole 1 Rocket 4.3 21:07:14 64° SE 21:07:51 66° ESE 21:14:30 10° NNE
CZ-2C R/B 4.0 21:03:24 10° N 21:08:07 36° WNW 21:12:48 10° SW
COSMOS 2455 3.6 21:05:22 10° NNW 21:11:02 40° NE 21:11:09 40° NE
Meteor 1-11 4.3 21:05:51 10° NNW 21:11:38 70° W 21:12:06 67° SW
Cosmos 2218 Rocket 4.2 21:16:05 10° N 21:21:26 56° NE 21:21:26 56° NE
Cosmos 1656 Rocket 3.9 21:17:21 10° NNW 21:22:37 66° W 21:22:37 66° W
ISS -0.5 21:20:50 10° WNW 21:21:09 12° WNW 21:21:09 12° WNW
ERS-1 Rocket 3.5 21:28:47 55° NW 21:28:47 55° NW 21:32:53 10° NNW
Resurs 01 Rocket 4.1 21:30:38 13° WSW 21:31:51 15° W 21:34:20 10° NW
Cosmos 2181 Rocket 4.2 21:33:10 60° NNE 21:33:10 60° NNE 21:38:18 10° NNE
SPOT 5 4.1 21:35:19 35° NNW 21:35:19 35° NNW 21:37:55 10° NNW
Cosmos 2369 Rocket 3.8 21:34:29 10° NW 21:39:05 26° WSW 21:39:39 25° WSW
SL-8 Rocket 4.3 21:51:01 10° NNW 21:56:35 62° WNW 21:56:35 62° WNW
Cosmos 1943 4.5 22:01:06 31° W 22:02:45 37° NW 22:08:02 10° NNE
CZ-4C R/B 4.4 21:57:42 10° NNW 22:03:04 25° NNE 22:06:33 18° ENE
Cosmos 2366 rocket 4.4 21:58:20 10° NNW 22:03:18 58° NW 22:03:18 58° NW
Mayak 1.6 22:06:31 10° NNE 22:06:55 13° NNE 22:06:55 13° NNE
NOSS 3-4 (A) 4.2 22:07:28 10° NW 22:13:24 57° W 22:13:24 57° W
NOSS 3-4 (C) 4.2 22:07:34 10° NW 22:13:29 57° W 22:13:29 57° W
Terra 4.0 22:28:30 22° NW 22:28:30 22° NW 22:30:33 10° NNW
Cosmos 1697 Rocket 4.4 22:22:34 10° NNW 22:26:03 27° NNE 22:26:03 27° NNE
USA 234 4.4 22:35:05 10° ENE 22:41:03 39° N 22:47:01 10° WNW
ATLAS 2AS CENTAUR R/B 4.0 22:40:02 10° NW 22:45:08 33° W 22:45:08 33° W
Cosmos 1980 Rocket 4.0 22:47:41 10° N 22:50:54 24° NNE 22:50:54 24° NNE
COSMOS 2455 4.5 22:51:21 10° NW 22:54:18 28° WNW 22:54:18 28° WNW
